Tracking 29489 objects as of 10-Sep-2024
HD Live streaming from Space Station
objects crossing your sky now

FENGYUN 1C DEB

Track FENGYUN 1C DEB now!
10-day predictions


NORAD ID: 32167
Int'l Code: 1999-025CTM
Perigee: 681.2 km
Apogee: 923.3 km
Inclination: 98.5 °
Period: 100.8 minutes
Semi major axis: 7173 km
RCS: 0.0085 m2 (small)
Launch date: May 10, 1999
Source: People's Republic of China (PRC)
Launch site: Taiyaun Space Center, China (TSC)

Note: This is SATELLITE DEBRIS
Your satellite tracking list
Your tracking list is empty




NASA's NSSDC Master Catalog

Two Line Element Set (TLE):
1 32167U 99025CTM 24239.25719884  .00003319  00000-0  11409-2 0  9991
2 32167  98.4600 240.2960 0168735  15.0380 345.5731 14.28981392559079
Source of the keplerian elements: AFSPC